Time,TemperatureF,DewpointF,PressureIn,WindDirection,WindDirectionDegrees,WindSpeedMPH,WindSpeedGustMPH,Humidity,HourlyPrecipIn,Conditions,Clouds,dailyrainin,SoftwareType,DateUTC
2013-05-15 00:01:00,52.9,45.5,29.82,North,355,0.0,0.0,76,0.00,,,0.00,meteohub,2013-05-15 07:01:00,
2013-05-15 00:06:00,52.5,45.5,29.82,North,355,0.0,0.0,77,0.00,,,0.00,meteohub,2013-05-15 07:06:00,
2013-05-15 00:11:00,52.3,45.3,29.82,North,355,0.0,0.0,77,0.00,,,0.00,meteohub,2013-05-15 07:11:00,
2013-05-15 00:16:00,52.3,45.3,29.82,North,355,0.0,0.0,77,0.00,,,0.00,meteohub,2013-05-15 07:16:00,
2013-05-15 00:21:00,52.2,45.1,29.82,North,355,0.0,0.0,77,0.00,,,0.00,meteohub,2013-05-15 07:21:00,
2013-05-15 00:26:00,52.2,45.1,29.82,North,355,0.0,0.0,77,0.00,,,0.00,meteohub,2013-05-15 07:26:00,
2013-05-15 00:32:00,52.0,45.0,29.82,North,355,0.0,0.0,77,0.00,,,0.00,meteohub,2013-05-15 07:32:00,
2013-05-15 00:37:00,52.0,45.0,29.82,North,355,0.0,0.0,77,0.00,,,0.00,meteohub,2013-05-15 07:37:00,
2013-05-15 00:42:00,51.6,44.6,29.83,North,355,0.0,0.0,77,0.00,,,0.00,meteohub,2013-05-15 07:42:00,
2013-05-15 00:47:00,51.6,44.6,29.83,North,355,0.0,0.0,77,0.00,,,0.00,meteohub,2013-05-15 07:47:00,
2013-05-15 00:52:00,51.4,44.8,29.83,North,355,0.0,0.0,78,0.00,,,0.00,meteohub,2013-05-15 07:52:00,
2013-05-15 00:57:00,51.3,44.2,29.82,North,355,0.0,0.0,77,0.00,,,0.00,meteohub,2013-05-15 07:57:00,
2013-05-15 01:02:00,51.1,44.4,29.82,North,355,0.0,0.0,78,0.00,,,0.00,meteohub,2013-05-15 08:02:00,
2013-05-15 01:07:00,50.9,44.2,29.82,North,355,0.0,0.0,78,0.00,,,0.00,meteohub,2013-05-15 08:07:00,
2013-05-15 01:12:00,50.7,44.1,29.82,North,355,0.0,0.0,78,0.00,,,0.00,meteohub,2013-05-15 08:12:00,
2013-05-15 01:17:00,50.5,43.9,29.82,North,355,0.0,0.0,78,0.00,,,0.00,meteohub,2013-05-15 08:17:00,
2013-05-15 01:22:00,50.4,44.1,29.82,North,355,0.0,0.0,79,0.00,,,0.00,meteohub,2013-05-15 08:22:00,
2013-05-15 01:27:00,50.4,44.1,29.81,North,355,0.0,0.0,79,0.00,,,0.00,meteohub,2013-05-15 08:27:00,
2013-05-15 01:32:00,50.2,43.9,29.81,North,355,0.0,0.0,79,0.00,,,0.00,meteohub,2013-05-15 08:32:00,
2013-05-15 01:37:00,50.2,43.9,29.81,North,355,0.0,0.0,79,0.00,,,0.00,meteohub,2013-05-15 08:37:00,
2013-05-15 01:42:00,50.2,44.2,29.81,North,355,0.0,0.0,80,0.00,,,0.00,meteohub,2013-05-15 08:42:00,
2013-05-15 01:47:00,49.8,43.9,29.81,North,355,0.0,0.0,80,0.00,,,0.00,meteohub,2013-05-15 08:47:00,
2013-05-15 01:52:00,49.8,43.9,29.81,North,355,0.0,0.0,80,0.00,,,0.00,meteohub,2013-05-15 08:52:00,
2013-05-15 01:57:00,49.6,43.7,29.81,North,355,0.0,0.0,80,0.00,,,0.00,meteohub,2013-05-15 08:57:00,
2013-05-15 02:02:00,49.5,43.5,29.81,North,355,0.0,0.0,80,0.00,,,0.00,meteohub,2013-05-15 09:02:00,
2013-05-15 02:07:00,49.3,43.7,29.81,North,355,0.0,0.0,81,0.00,,,0.00,meteohub,2013-05-15 09:07:00,
2013-05-15 02:12:00,49.1,43.5,29.81,North,355,0.0,0.0,81,0.00,,,0.00,meteohub,2013-05-15 09:12:00,
2013-05-15 02:17:00,48.9,43.7,29.81,North,355,0.0,0.0,82,0.00,,,0.00,meteohub,2013-05-15 09:17:00,
2013-05-15 02:22:00,48.7,43.9,29.81,North,355,0.0,0.0,83,0.00,,,0.00,meteohub,2013-05-15 09:22:00,
2013-05-15 02:27:00,48.6,43.7,29.81,North,355,0.0,0.0,83,0.00,,,0.00,meteohub,2013-05-15 09:27:00,
2013-05-15 02:32:00,48.2,43.3,29.81,North,355,0.0,0.0,83,0.00,,,0.00,meteohub,2013-05-15 09:32:00,
2013-05-15 02:37:00,48.0,43.3,29.81,North,355,0.0,0.0,84,0.00,,,0.00,meteohub,2013-05-15 09:37:00,
2013-05-15 02:42:00,47.8,43.5,29.82,North,355,0.0,0.0,85,0.00,,,0.00,meteohub,2013-05-15 09:42:00,
2013-05-15 02:47:00,47.7,43.3,29.82,North,355,0.0,0.0,85,0.00,,,0.00,meteohub,2013-05-15 09:47:00,
2013-05-15 02:52:00,47.7,43.7,29.82,North,355,0.0,0.0,86,0.00,,,0.00,meteohub,2013-05-15 09:52:00,
2013-05-15 02:57:00,47.5,43.5,29.82,North,355,0.0,0.0,86,0.00,,,0.00,meteohub,2013-05-15 09:57:00,
2013-05-15 03:02:00,47.3,43.3,29.82,North,355,0.0,0.0,86,0.00,,,0.00,meteohub,2013-05-15 10:02:00,
2013-05-15 03:07:00,47.1,43.5,29.82,North,355,0.0,0.0,87,0.00,,,0.00,meteohub,2013-05-15 10:07:00,
2013-05-15 03:12:00,47.1,43.5,29.82,North,355,0.0,0.0,87,0.00,,,0.00,meteohub,2013-05-15 10:12:00,
2013-05-15 03:17:00,46.9,43.3,29.82,North,355,0.0,0.0,87,0.00,,,0.00,meteohub,2013-05-15 10:17:00,
2013-05-15 03:22:00,46.9,43.5,29.82,North,355,0.0,0.0,88,0.00,,,0.00,meteohub,2013-05-15 10:22:00,
2013-05-15 03:27:00,46.8,44.6,29.82,North,355,0.0,0.0,92,0.00,,,0.00,meteohub,2013-05-15 10:27:00,
2013-05-15 03:32:00,46.8,43.3,29.82,North,355,0.0,0.0,88,0.00,,,0.00,meteohub,2013-05-15 10:32:00,
2013-05-15 03:37:00,46.8,43.3,29.82,North,355,0.0,0.0,88,0.00,,,0.00,meteohub,2013-05-15 10:37:00,
2013-05-15 03:42:00,46.8,43.3,29.82,North,355,0.0,0.0,88,0.00,,,0.00,meteohub,2013-05-15 10:42:00,
2013-05-15 03:47:00,46.6,43.2,29.82,North,355,0.0,0.0,88,0.00,,,0.00,meteohub,2013-05-15 10:47:00,
2013-05-15 03:52:00,46.6,43.2,29.82,North,355,0.0,0.0,88,0.00,,,0.00,meteohub,2013-05-15 10:52:00,
2013-05-15 03:57:00,46.4,43.0,29.82,North,355,0.0,0.0,88,0.00,,,0.00,meteohub,2013-05-15 10:57:00,
2013-05-15 04:02:00,46.2,43.2,29.82,North,355,0.0,0.0,89,0.00,,,0.00,meteohub,2013-05-15 11:02:00,
2013-05-15 04:07:00,46.2,43.2,29.82,North,355,0.0,0.0,89,0.00,,,0.00,meteohub,2013-05-15 11:07:00,
2013-05-15 04:12:00,46.2,42.8,29.82,North,355,0.0,0.0,88,0.00,,,0.00,meteohub,2013-05-15 11:12:00,
2013-05-15 04:18:00,46.0,43.0,29.82,North,355,0.0,0.0,89,0.00,,,0.00,meteohub,2013-05-15 11:18:00,
2013-05-15 04:23:00,45.9,42.8,29.82,North,355,0.0,0.0,89,0.00,,,0.00,meteohub,2013-05-15 11:23:00,
2013-05-15 04:28:00,45.9,42.8,29.82,North,355,0.0,0.0,89,0.00,,,0.00,meteohub,2013-05-15 11:28:00,
2013-05-15 04:33:00,45.7,42.6,29.82,North,355,0.0,0.0,89,0.00,,,0.00,meteohub,2013-05-15 11:33:00,
2013-05-15 04:39:00,45.5,42.4,29.82,North,355,0.0,0.0,89,0.00,,,0.00,meteohub,2013-05-15 11:39:00,
2013-05-15 04:44:00,45.3,42.6,29.82,North,355,0.0,0.0,90,0.00,,,0.00,meteohub,2013-05-15 11:44:00,
2013-05-15 04:49:00,45.3,42.6,29.82,North,355,0.0,0.0,90,0.00,,,0.00,meteohub,2013-05-15 11:49:00,
2013-05-15 04:54:00,45.1,42.4,29.82,North,355,0.0,0.0,90,0.00,,,0.00,meteohub,2013-05-15 11:54:00,
2013-05-15 04:59:00,45.1,42.4,29.82,North,355,0.0,0.0,90,0.00,,,0.00,meteohub,2013-05-15 11:59:00,
2013-05-15 05:04:00,45.0,42.3,29.82,North,355,0.0,0.0,90,0.00,,,0.00,meteohub,2013-05-15 12:04:00,
2013-05-15 05:09:00,45.0,42.4,29.82,North,355,0.0,0.0,91,0.00,,,0.00,meteohub,2013-05-15 12:09:00,
2013-05-15 05:15:00,45.0,42.4,29.83,North,355,0.0,1.0,91,0.00,,,0.00,meteohub,2013-05-15 12:15:00,
2013-05-15 05:20:00,44.8,42.3,29.83,North,355,0.0,1.0,91,0.00,,,0.00,meteohub,2013-05-15 12:20:00,
2013-05-15 05:25:00,44.8,42.3,29.83,North,355,0.0,1.0,91,0.00,,,0.00,meteohub,2013-05-15 12:25:00,
2013-05-15 05:30:00,44.8,42.3,29.83,North,355,0.0,1.0,91,0.00,,,0.00,meteohub,2013-05-15 12:30:00,
2013-05-15 05:35:00,44.8,42.3,29.83,North,355,0.0,1.0,91,0.00,,,0.00,meteohub,2013-05-15 12:35:00,
2013-05-15 05:41:00,44.6,42.1,29.83,North,355,0.0,0.0,91,0.00,,,0.00,meteohub,2013-05-15 12:41:00,
2013-05-15 05:46:00,44.6,42.4,29.83,North,355,0.0,0.0,92,0.00,,,0.00,meteohub,2013-05-15 12:46:00,
2013-05-15 05:52:00,44.6,42.4,29.83,North,355,0.0,0.0,92,0.00,,,0.00,meteohub,2013-05-15 12:52:00,
2013-05-15 05:57:00,44.6,42.4,29.84,North,355,0.0,0.0,92,0.00,,,0.00,meteohub,2013-05-15 12:57:00,
2013-05-15 06:02:00,44.6,42.4,29.84,North,355,0.0,1.0,92,0.00,,,0.00,meteohub,2013-05-15 13:02:00,
2013-05-15 06:07:00,44.6,42.4,29.84,North,355,0.0,1.0,92,0.00,,,0.00,meteohub,2013-05-15 13:07:00,
2013-05-15 06:12:00,44.6,42.4,29.84,North,355,0.0,1.0,92,0.00,,,0.00,meteohub,2013-05-15 13:12:00,
2013-05-15 06:17:00,44.6,42.4,29.84,North,355,0.0,0.0,92,0.00,,,0.00,meteohub,2013-05-15 13:17:00,
2013-05-15 06:22:00,44.8,42.8,29.84,North,355,0.0,0.0,93,0.00,,,0.00,meteohub,2013-05-15 13:22:00,
2013-05-15 06:28:00,44.8,42.8,29.85,North,355,0.0,0.0,93,0.00,,,0.00,meteohub,2013-05-15 13:28:00,
2013-05-15 06:33:00,45.0,43.0,29.85,North,355,0.0,0.0,93,0.00,,,0.00,meteohub,2013-05-15 13:33:00,
2013-05-15 06:38:00,45.1,43.2,29.85,North,355,0.0,0.0,93,0.00,,,0.00,meteohub,2013-05-15 13:38:00,
2013-05-15 06:43:00,45.3,43.3,29.85,North,355,0.0,0.0,93,0.00,,,0.00,meteohub,2013-05-15 13:43:00,
2013-05-15 06:48:00,45.7,43.7,29.85,North,355,0.0,0.0,93,0.00,,,0.00,meteohub,2013-05-15 13:48:00,
2013-05-15 06:53:00,45.9,43.9,29.85,North,355,0.0,0.0,93,0.00,,,0.00,meteohub,2013-05-15 13:53:00,
2013-05-15 06:58:00,46.0,44.1,29.85,North,355,0.0,0.0,93,0.00,,,0.00,meteohub,2013-05-15 13:58:00,
2013-05-15 07:03:00,46.6,44.4,29.85,North,355,0.0,1.0,92,0.00,,,0.00,meteohub,2013-05-15 14:03:00,
2013-05-15 07:08:00,46.9,44.8,29.85,North,355,0.0,1.0,92,0.00,,,0.00,meteohub,2013-05-15 14:08:00,
2013-05-15 07:13:00,47.5,45.0,29.86,North,355,0.0,2.0,91,0.00,,,0.00,meteohub,2013-05-15 14:13:00,
2013-05-15 07:19:00,47.7,45.1,29.86,North,355,0.0,2.0,91,0.00,,,0.00,meteohub,2013-05-15 14:19:00,
2013-05-15 07:24:00,48.0,45.5,29.86,North,355,0.0,2.0,91,0.00,,,0.00,meteohub,2013-05-15 14:24:00,
2013-05-15 07:29:00,48.6,46.0,29.86,North,355,0.0,0.0,91,0.00,,,0.00,meteohub,2013-05-15 14:29:00,
2013-05-15 07:34:00,49.1,46.0,29.86,North,355,0.0,1.0,89,0.00,,,0.00,meteohub,2013-05-15 14:34:00,
2013-05-15 07:39:00,50.0,46.9,29.86,North,355,0.0,2.0,89,0.00,,,0.00,meteohub,2013-05-15 14:39:00,
2013-05-15 07:44:00,51.1,46.4,29.87,North,355,0.0,2.0,84,0.00,,,0.00,meteohub,2013-05-15 14:44:00,
2013-05-15 07:49:00,52.0,46.0,29.87,North,349,0.0,2.0,80,0.00,,,0.00,meteohub,2013-05-15 14:49:00,
2013-05-15 07:55:00,53.1,46.0,29.87,West,267,0.0,3.0,77,0.00,,,0.00,meteohub,2013-05-15 14:55:00,
2013-05-15 08:00:00,53.8,45.7,29.87,West,267,0.0,5.0,74,0.00,,,0.00,meteohub,2013-05-15 15:00:00,
2013-05-15 08:06:00,54.1,45.7,29.87,West,267,1.0,5.0,73,0.00,,,0.00,meteohub,2013-05-15 15:06:00,
2013-05-15 08:10:00,54.7,45.9,29.86,West,267,0.0,5.0,72,0.00,,,0.00,meteohub,2013-05-15 15:10:00,
2013-05-15 08:16:00,55.0,45.5,29.86,West,267,0.0,4.0,70,0.00,,,0.00,meteohub,2013-05-15 15:16:00,
2013-05-15 08:21:00,55.6,45.5,29.86,West,267,0.0,4.0,69,0.00,,,0.00,meteohub,2013-05-15 15:21:00,
2013-05-15 08:26:00,56.3,45.5,29.87,West,265,0.0,4.0,67,0.00,,,0.00,meteohub,2013-05-15 15:26:00,
2013-05-15 08:31:00,56.8,44.4,29.87,West,261,1.0,4.0,63,0.00,,,0.00,meteohub,2013-05-15 15:31:00,
2013-05-15 08:36:00,57.4,45.3,29.87,West,260,1.0,4.0,64,0.00,,,0.00,meteohub,2013-05-15 15:36:00,
2013-05-15 08:41:00,57.9,45.0,29.87,West,260,3.0,4.0,62,0.00,,,0.00,meteohub,2013-05-15 15:41:00,
2013-05-15 08:46:00,58.6,46.0,29.87,West,260,0.0,4.0,63,0.00,,,0.00,meteohub,2013-05-15 15:46:00,
2013-05-15 08:52:00,59.4,45.0,29.87,WSW,253,0.0,3.0,59,0.00,,,0.00,meteohub,2013-05-15 15:52:00,
2013-05-15 08:57:00,59.7,45.3,29.87,WSW,253,1.0,3.0,59,0.00,,,0.00,meteohub,2013-05-15 15:57:00,
2013-05-15 09:02:00,60.3,45.5,29.87,WSW,250,1.0,4.0,58,0.00,,,0.00,meteohub,2013-05-15 16:02:00,
2013-05-15 09:07:00,60.6,44.4,29.87,SSW,210,2.0,5.0,55,0.00,,,0.00,meteohub,2013-05-15 16:07:00,
2013-05-15 09:12:00,61.0,45.1,29.87,SSW,210,1.0,5.0,56,0.00,,,0.00,meteohub,2013-05-15 16:12:00,
2013-05-15 09:17:00,61.2,45.3,29.87,SSW,210,1.0,5.0,56,0.00,,,0.00,meteohub,2013-05-15 16:17:00,
2013-05-15 09:22:00,61.5,44.2,29.87,SSW,211,2.0,4.0,53,0.00,,,0.00,meteohub,2013-05-15 16:22:00,
2013-05-15 09:27:00,61.2,43.9,29.87,North,355,3.0,5.0,53,0.00,,,0.00,meteohub,2013-05-15 16:27:00,
2013-05-15 09:32:00,61.0,44.2,29.87,NNE,14,3.0,6.0,54,0.00,,,0.00,meteohub,2013-05-15 16:32:00,
2013-05-15 09:37:00,61.2,44.8,29.87,NNE,17,2.0,6.0,55,0.00,,,0.00,meteohub,2013-05-15 16:37:00,
2013-05-15 09:42:00,61.7,44.4,29.87,NNE,18,2.0,6.0,53,0.00,,,0.00,meteohub,2013-05-15 16:42:00,
2013-05-15 09:47:00,62.2,46.4,29.87,NNE,18,2.0,6.0,56,0.00,,,0.00,meteohub,2013-05-15 16:47:00,
2013-05-15 09:52:00,63.1,44.8,29.87,North,9,3.0,6.0,51,0.00,,,0.00,meteohub,2013-05-15 16:52:00,
2013-05-15 09:57:00,63.3,42.8,29.88,WSW,240,2.0,5.0,47,0.00,,,0.00,meteohub,2013-05-15 16:57:00,
2013-05-15 10:02:00,63.1,41.5,29.88,SW,236,1.0,9.0,45,0.00,,,0.00,meteohub,2013-05-15 17:02:00,
2013-05-15 10:07:00,63.3,43.9,29.88,SW,236,1.0,9.0,49,0.00,,,0.00,meteohub,2013-05-15 17:07:00,
2013-05-15 10:12:00,64.0,42.3,29.88,West,269,3.0,6.0,45,0.00,,,0.00,meteohub,2013-05-15 17:12:00,
2013-05-15 10:17:00,64.0,43.9,29.88,West,278,0.0,9.0,48,0.00,,,0.00,meteohub,2013-05-15 17:17:00,
2013-05-15 10:22:00,64.6,45.0,29.88,SW,232,4.0,9.0,49,0.00,,,0.00,meteohub,2013-05-15 17:22:00,
2013-05-15 10:27:00,65.1,43.9,29.88,WSW,250,2.0,9.0,46,0.00,,,0.00,meteohub,2013-05-15 17:27:00,
2013-05-15 10:32:00,65.3,44.6,29.88,WSW,251,3.0,5.0,47,0.00,,,0.00,meteohub,2013-05-15 17:32:00,
2013-05-15 10:37:00,65.7,45.5,29.88,WSW,252,2.0,5.0,48,0.00,,,0.00,meteohub,2013-05-15 17:37:00,
2013-05-15 10:42:00,65.8,43.9,29.88,West,273,1.0,5.0,45,0.00,,,0.00,meteohub,2013-05-15 17:42:00,
2013-05-15 10:47:00,65.8,46.2,29.88,West,273,0.0,6.0,49,0.00,,,0.00,meteohub,2013-05-15 17:47:00,
2013-05-15 10:52:00,66.4,45.0,29.88,West,271,0.0,6.0,46,0.00,,,0.00,meteohub,2013-05-15 17:52:00,
2013-05-15 10:57:00,66.9,45.5,29.88,West,271,2.0,7.0,46,0.00,,,0.00,meteohub,2013-05-15 17:57:00,
2013-05-15 11:02:00,67.3,46.4,29.88,West,271,2.0,7.0,47,0.00,,,0.00,meteohub,2013-05-15 18:02:00,
2013-05-15 11:08:00,67.5,46.0,29.88,West,265,1.0,3.0,46,0.00,,,0.00,meteohub,2013-05-15 18:08:00,
2013-05-15 11:13:00,66.9,46.0,29.88,West,270,1.0,6.0,47,0.00,,,0.00,meteohub,2013-05-15 18:13:00,
2013-05-15 11:19:00,67.3,44.6,29.88,SW,224,1.0,6.0,44,0.00,,,0.00,meteohub,2013-05-15 18:19:00,
2013-05-15 11:25:00,66.7,44.8,29.88,WNW,301,2.0,7.0,45,0.00,,,0.00,meteohub,2013-05-15 18:25:00,
2013-05-15 11:30:00,67.5,44.8,29.88,WNW,300,2.0,7.0,44,0.00,,,0.00,meteohub,2013-05-15 18:30:00,
2013-05-15 11:35:00,67.6,45.0,29.88,WNW,300,4.0,7.0,44,0.00,,,0.00,meteohub,2013-05-15 18:35:00,
2013-05-15 11:40:00,67.5,45.3,29.88,WNW,294,1.0,7.0,45,0.00,,,0.00,meteohub,2013-05-15 18:40:00,
2013-05-15 11:45:00,68.2,47.1,29.88,WNW,292,1.0,10.0,47,0.00,,,0.00,meteohub,2013-05-15 18:45:00,
2013-05-15 11:50:00,68.5,45.7,29.88,WNW,300,0.0,6.0,44,0.00,,,0.00,meteohub,2013-05-15 18:50:00,
2013-05-15 11:55:00,69.1,46.2,29.88,WNW,300,0.0,6.0,44,0.00,,,0.00,meteohub,2013-05-15 18:55:00,
2013-05-15 12:01:00,69.4,46.0,29.88,WNW,301,1.0,6.0,43,0.00,,,0.00,meteohub,2013-05-15 19:01:00,
2013-05-15 12:06:00,69.1,45.7,29.88,NW,319,4.0,6.0,43,0.00,,,0.00,meteohub,2013-05-15 19:06:00,
2013-05-15 12:12:00,69.3,46.4,29.88,NW,321,0.0,6.0,44,0.00,,,0.00,meteohub,2013-05-15 19:12:00,
2013-05-15 12:17:00,69.8,47.5,29.88,NW,321,0.0,6.0,45,0.00,,,0.00,meteohub,2013-05-15 19:17:00,
2013-05-15 12:22:00,70.2,46.6,29.88,NW,318,2.0,6.0,43,0.00,,,0.00,meteohub,2013-05-15 19:22:00,
2013-05-15 12:27:00,70.3,48.0,29.87,NNW,327,2.0,6.0,45,0.00,,,0.00,meteohub,2013-05-15 19:27:00,
2013-05-15 12:32:00,70.3,46.2,29.87,WNW,294,2.0,6.0,42,0.00,,,0.00,meteohub,2013-05-15 19:32:00,
2013-05-15 12:37:00,70.5,45.0,29.87,WNW,298,1.0,4.0,40,0.00,,,0.00,meteohub,2013-05-15 19:37:00,
2013-05-15 12:42:00,70.3,46.2,29.87,SW,234,0.0,5.0,42,0.00,,,0.00,meteohub,2013-05-15 19:42:00,
2013-05-15 12:48:00,70.3,46.2,29.87,SW,234,3.0,6.0,42,0.00,,,0.00,meteohub,2013-05-15 19:48:00,
2013-05-15 12:53:00,70.9,48.6,29.87,SW,234,0.0,6.0,45,0.00,,,0.00,meteohub,2013-05-15 19:53:00,
2013-05-15 12:58:00,71.2,46.4,29.87,WSW,238,0.0,6.0,41,0.00,,,0.00,meteohub,2013-05-15 19:58:00,
2013-05-15 13:03:00,71.6,47.8,29.87,SW,234,1.0,7.0,43,0.00,,,0.00,meteohub,2013-05-15 20:03:00,
2013-05-15 13:08:00,72.0,46.9,29.87,WSW,237,1.0,7.0,41,0.00,,,0.00,meteohub,2013-05-15 20:08:00,
2013-05-15 13:13:00,72.1,47.1,29.87,WSW,237,1.0,7.0,41,0.00,,,0.00,meteohub,2013-05-15 20:13:00,
2013-05-15 13:18:00,72.1,47.8,29.87,WSW,243,0.0,4.0,42,0.00,,,0.00,meteohub,2013-05-15 20:18:00,
2013-05-15 13:24:00,72.3,48.0,29.87,WSW,244,0.0,7.0,42,0.00,,,0.00,meteohub,2013-05-15 20:24:00,
2013-05-15 13:29:00,73.0,46.6,29.86,WSW,251,0.0,7.0,39,0.00,,,0.00,meteohub,2013-05-15 20:29:00,
2013-05-15 13:34:00,73.4,46.9,29.86,WSW,251,1.0,4.0,39,0.00,,,0.00,meteohub,2013-05-15 20:34:00,
2013-05-15 13:39:00,73.9,48.0,29.86,WSW,251,1.0,4.0,40,0.00,,,0.00,meteohub,2013-05-15 20:39:00,
2013-05-15 13:44:00,74.1,48.2,29.86,WSW,251,3.0,4.0,40,0.00,,,0.00,meteohub,2013-05-15 20:44:00,
2013-05-15 13:49:00,74.1,47.7,29.86,WSW,251,0.0,4.0,39,0.00,,,0.00,meteohub,2013-05-15 20:49:00,
2013-05-15 13:54:00,74.3,47.1,29.86,WSW,253,0.0,4.0,38,0.00,,,0.00,meteohub,2013-05-15 20:54:00,
2013-05-15 13:59:00,74.5,47.1,29.86,WSW,249,1.0,5.0,38,0.00,,,0.00,meteohub,2013-05-15 20:59:00,
2013-05-15 14:04:00,74.3,48.4,29.86,WSW,249,0.0,6.0,40,0.00,,,0.00,meteohub,2013-05-15 21:04:00,
2013-05-15 14:09:00,74.1,48.9,29.86,West,273,0.0,6.0,41,0.00,,,0.00,meteohub,2013-05-15 21:09:00,
2013-05-15 14:15:00,73.9,48.0,29.86,West,279,1.0,7.0,40,0.00,,,0.00,meteohub,2013-05-15 21:15:00,
2013-05-15 14:20:00,73.9,48.7,29.86,West,279,0.0,7.0,41,0.00,,,0.00,meteohub,2013-05-15 21:20:00,
2013-05-15 14:25:00,74.3,50.9,29.86,West,276,4.0,6.0,44,0.00,,,0.00,meteohub,2013-05-15 21:25:00,
2013-05-15 14:31:00,74.1,51.4,29.86,NW,309,2.0,7.0,45,0.00,,,0.00,meteohub,2013-05-15 21:31:00,
2013-05-15 14:36:00,74.1,50.9,29.86,WNW,294,3.0,7.0,44,0.00,,,0.00,meteohub,2013-05-15 21:36:00,
2013-05-15 14:41:00,73.9,50.7,29.86,West,268,0.0,7.0,44,0.00,,,0.00,meteohub,2013-05-15 21:41:00,
2013-05-15 14:46:00,73.8,52.9,29.86,West,264,1.0,8.0,48,0.00,,,0.00,meteohub,2013-05-15 21:46:00,
2013-05-15 14:51:00,73.8,51.1,29.86,NW,321,0.0,8.0,45,0.00,,,0.00,meteohub,2013-05-15 21:51:00,
2013-05-15 14:56:00,73.4,50.7,29.86,WNW,298,3.0,7.0,45,0.00,,,0.00,meteohub,2013-05-15 21:56:00,
2013-05-15 15:01:00,73.2,52.3,29.86,WNW,293,3.0,7.0,48,0.00,,,0.00,meteohub,2013-05-15 22:01:00,
2013-05-15 15:07:00,73.4,50.7,29.86,West,275,5.0,5.0,45,0.00,,,0.00,meteohub,2013-05-15 22:07:00,
2013-05-15 15:12:00,73.6,52.2,29.85,West,278,1.0,7.0,47,0.00,,,0.00,meteohub,2013-05-15 22:12:00,
2013-05-15 15:17:00,73.9,52.5,29.85,WNW,300,0.0,7.0,47,0.00,,,0.00,meteohub,2013-05-15 22:17:00,
2013-05-15 15:22:00,74.5,51.8,29.85,West,275,2.0,7.0,45,0.00,,,0.00,meteohub,2013-05-15 22:22:00,
2013-05-15 15:27:00,74.3,52.2,29.85,WNW,293,0.0,6.0,46,0.00,,,0.00,meteohub,2013-05-15 22:27:00,
2013-05-15 15:32:00,74.7,52.5,29.85,WNW,294,3.0,7.0,46,0.00,,,0.00,meteohub,2013-05-15 22:32:00,
2013-05-15 15:37:00,75.0,52.2,29.85,West,268,9.0,9.0,45,0.00,,,0.00,meteohub,2013-05-15 22:37:00,
2013-05-15 15:42:00,74.8,52.2,29.85,West,259,3.0,11.0,45,0.00,,,0.00,meteohub,2013-05-15 22:42:00,
2013-05-15 15:47:00,74.7,52.5,29.85,West,259,3.0,11.0,46,0.00,,,0.00,meteohub,2013-05-15 22:47:00,
2013-05-15 15:52:00,74.5,52.9,29.85,West,259,2.0,11.0,47,0.00,,,0.00,meteohub,2013-05-15 22:52:00,
2013-05-15 15:57:00,74.5,51.8,29.85,West,259,1.0,7.0,45,0.00,,,0.00,meteohub,2013-05-15 22:57:00,
2013-05-15 16:02:00,74.3,52.2,29.85,WNW,292,1.0,7.0,46,0.00,,,0.00,meteohub,2013-05-15 23:02:00,
2013-05-15 16:07:00,74.5,51.8,29.85,WNW,298,0.0,7.0,45,0.00,,,0.00,meteohub,2013-05-15 23:07:00,
2013-05-15 16:12:00,73.8,51.1,29.84,WNW,288,0.0,6.0,45,0.00,,,0.00,meteohub,2013-05-15 23:12:00,
2013-05-15 16:17:00,73.6,52.2,29.84,West,259,3.0,7.0,47,0.00,,,0.00,meteohub,2013-05-15 23:17:00,
2013-05-15 16:23:00,73.8,51.6,29.84,West,269,1.0,7.0,46,0.00,,,0.00,meteohub,2013-05-15 23:23:00,
2013-05-15 16:28:00,73.6,51.4,29.84,WNW,283,0.0,6.0,46,0.00,,,0.00,meteohub,2013-05-15 23:28:00,
2013-05-15 16:34:00,73.0,52.2,29.84,WNW,283,0.0,5.0,48,0.00,,,0.00,meteohub,2013-05-15 23:34:00,
2013-05-15 16:39:00,73.0,51.6,29.84,WNW,294,3.0,5.0,47,0.00,,,0.00,meteohub,2013-05-15 23:39:00,
2013-05-15 16:44:00,72.7,51.3,29.84,North,355,0.0,11.0,47,0.00,,,0.00,meteohub,2013-05-15 23:44:00,
2013-05-15 16:49:00,72.3,51.4,29.84,NNW,342,0.0,11.0,48,0.00,,,0.00,meteohub,2013-05-15 23:49:00,
2013-05-15 16:55:00,71.8,51.6,29.84,North,0,0.0,11.0,49,0.00,,,0.00,meteohub,2013-05-15 23:55:00,
2013-05-15 17:00:00,71.4,51.8,29.84,North,9,0.0,9.0,50,0.00,,,0.00,meteohub,2013-05-16 00:00:00,
2013-05-15 17:05:00,71.2,50.5,29.84,NNW,331,0.0,9.0,48,0.00,,,0.00,meteohub,2013-05-16 00:05:00,
2013-05-15 17:10:00,70.9,51.3,29.84,NNW,335,0.0,9.0,50,0.00,,,0.00,meteohub,2013-05-16 00:10:00,
2013-05-15 17:15:00,70.5,50.9,29.84,NNW,335,0.0,5.0,50,0.00,,,0.00,meteohub,2013-05-16 00:15:00,
2013-05-15 17:20:00,70.3,51.4,29.84,NNW,336,0.0,6.0,51,0.00,,,0.00,meteohub,2013-05-16 00:20:00,
2013-05-15 17:25:00,70.2,51.3,29.84,NNW,335,1.0,3.0,51,0.00,,,0.00,meteohub,2013-05-16 00:25:00,
2013-05-15 17:30:00,70.2,51.3,29.84,NNW,328,0.0,4.0,51,0.00,,,0.00,meteohub,2013-05-16 00:30:00,
2013-05-15 17:35:00,70.0,51.6,29.84,NNW,328,0.0,5.0,52,0.00,,,0.00,meteohub,2013-05-16 00:35:00,
2013-05-15 17:40:00,69.8,52.0,29.84,NNW,328,0.0,5.0,53,0.00,,,0.00,meteohub,2013-05-16 00:40:00,
2013-05-15 17:45:00,69.4,51.6,29.84,NNW,327,2.0,6.0,53,0.00,,,0.00,meteohub,2013-05-16 00:45:00,
2013-05-15 17:50:00,68.9,51.1,29.84,NNW,327,0.0,6.0,53,0.00,,,0.00,meteohub,2013-05-16 00:50:00,
2013-05-15 17:55:00,68.5,51.3,29.84,NNW,327,0.0,6.0,54,0.00,,,0.00,meteohub,2013-05-16 00:55:00,
2013-05-15 18:00:00,68.2,51.4,29.84,NNW,327,0.0,3.0,55,0.00,,,0.00,meteohub,2013-05-16 01:00:00,
2013-05-15 18:05:00,67.8,51.1,29.84,NNW,329,0.0,3.0,55,0.00,,,0.00,meteohub,2013-05-16 01:05:00,
2013-05-15 18:10:00,67.5,51.3,29.84,NNW,329,0.0,4.0,56,0.00,,,0.00,meteohub,2013-05-16 01:10:00,
2013-05-15 18:16:00,67.3,51.4,29.84,NNW,329,1.0,4.0,57,0.00,,,0.00,meteohub,2013-05-16 01:16:00,
2013-05-15 18:21:00,66.9,51.6,29.84,NNW,329,0.0,3.0,58,0.00,,,0.00,meteohub,2013-05-16 01:21:00,
2013-05-15 18:26:00,66.7,52.0,29.84,NNW,329,1.0,3.0,59,0.00,,,0.00,meteohub,2013-05-16 01:26:00,
2013-05-15 18:31:00,66.7,51.4,29.84,NNW,329,0.0,4.0,58,0.00,,,0.00,meteohub,2013-05-16 01:31:00,
2013-05-15 18:36:00,66.6,51.3,29.84,NNW,329,0.0,4.0,58,0.00,,,0.00,meteohub,2013-05-16 01:36:00,
2013-05-15 18:42:00,66.6,51.8,29.83,NNW,329,0.0,4.0,59,0.00,,,0.00,meteohub,2013-05-16 01:42:00,
2013-05-15 18:47:00,66.6,51.8,29.83,NNW,329,0.0,2.0,59,0.00,,,0.00,meteohub,2013-05-16 01:47:00,
2013-05-15 18:52:00,66.4,52.2,29.83,NNW,329,0.0,2.0,60,0.00,,,0.00,meteohub,2013-05-16 01:52:00,
2013-05-15 18:57:00,66.4,52.2,29.83,NNW,329,0.0,2.0,60,0.00,,,0.00,meteohub,2013-05-16 01:57:00,
2013-05-15 19:02:00,66.2,53.2,29.83,NNW,329,0.0,2.0,63,0.00,,,0.00,meteohub,2013-05-16 02:02:00,
2013-05-15 19:07:00,66.0,51.8,29.83,NNW,329,0.0,2.0,60,0.00,,,0.00,meteohub,2013-05-16 02:07:00,
2013-05-15 19:12:00,65.8,52.0,29.83,NNW,329,0.0,1.0,61,0.00,,,0.00,meteohub,2013-05-16 02:12:00,
2013-05-15 19:17:00,65.7,52.3,29.83,NNW,329,0.0,3.0,62,0.00,,,0.00,meteohub,2013-05-16 02:17:00,
2013-05-15 19:22:00,65.5,52.2,29.83,NNW,329,0.0,3.0,62,0.00,,,0.00,meteohub,2013-05-16 02:22:00,
2013-05-15 19:27:00,65.1,52.2,29.82,NNW,329,0.0,2.0,63,0.00,,,0.00,meteohub,2013-05-16 02:27:00,
2013-05-15 19:32:00,64.8,52.3,29.82,NNW,329,0.0,2.0,64,0.00,,,0.00,meteohub,2013-05-16 02:32:00,
2013-05-15 19:37:00,64.4,52.0,29.82,NNW,328,0.0,2.0,64,0.00,,,0.00,meteohub,2013-05-16 02:37:00,
2013-05-15 19:42:00,64.6,51.6,29.83,WNW,300,1.0,3.0,63,0.00,,,0.00,meteohub,2013-05-16 02:42:00,
2013-05-15 19:47:00,64.6,51.6,29.83,WNW,300,0.0,5.0,63,0.00,,,0.00,meteohub,2013-05-16 02:47:00,
2013-05-15 19:52:00,64.2,51.8,29.83,WNW,300,0.0,5.0,64,0.00,,,0.00,meteohub,2013-05-16 02:52:00,
2013-05-15 19:57:00,63.9,51.4,29.83,WNW,300,0.0,3.0,64,0.00,,,0.00,meteohub,2013-05-16 02:57:00,
2013-05-15 20:02:00,63.5,51.1,29.83,WNW,300,2.0,2.0,64,0.00,,,0.00,meteohub,2013-05-16 03:02:00,
2013-05-15 20:07:00,63.1,50.7,29.83,WNW,300,0.0,3.0,64,0.00,,,0.00,meteohub,2013-05-16 03:07:00,
2013-05-15 20:12:00,63.0,49.8,29.83,WNW,289,3.0,3.0,62,0.00,,,0.00,meteohub,2013-05-16 03:12:00,
2013-05-15 20:18:00,63.0,49.8,29.83,WNW,288,2.0,5.0,62,0.00,,,0.00,meteohub,2013-05-16 03:18:00,
2013-05-15 20:23:00,63.1,50.4,29.83,WNW,285,0.0,5.0,63,0.00,,,0.00,meteohub,2013-05-16 03:23:00,
2013-05-15 20:28:00,63.0,50.5,29.83,WNW,285,0.0,5.0,64,0.00,,,0.00,meteohub,2013-05-16 03:28:00,
2013-05-15 20:33:00,62.8,49.6,29.83,WNW,292,1.0,4.0,62,0.00,,,0.00,meteohub,2013-05-16 03:33:00,
2013-05-15 20:38:00,62.6,49.5,29.83,WNW,290,0.0,5.0,62,0.00,,,0.00,meteohub,2013-05-16 03:38:00,
2013-05-15 20:43:00,62.2,50.0,29.84,WNW,290,0.0,5.0,64,0.00,,,0.00,meteohub,2013-05-16 03:43:00,
2013-05-15 20:49:00,61.7,49.8,29.84,WNW,290,0.0,5.0,65,0.00,,,0.00,meteohub,2013-05-16 03:49:00,
2013-05-15 20:54:00,61.2,50.2,29.84,WNW,291,0.0,5.0,67,0.00,,,0.00,meteohub,2013-05-16 03:54:00,
2013-05-15 20:59:00,60.8,48.6,29.84,WNW,290,1.0,3.0,64,0.00,,,0.00,meteohub,2013-05-16 03:59:00,
2013-05-15 21:01:00,60.8,49.5,29.84,WNW,292,3.0,4.0,66,0.00,,,0.00,meteohub,2013-05-16 04:01:00,
2013-05-15 21:06:00,60.6,49.6,29.84,WNW,292,3.0,4.0,67,0.00,,,0.00,meteohub,2013-05-16 04:06:00,
2013-05-15 21:11:00,60.1,49.5,29.85,WNW,294,2.0,4.0,68,0.00,,,0.00,meteohub,2013-05-16 04:11:00,
2013-05-15 21:16:00,59.7,49.5,29.85,WNW,294,1.0,4.0,69,0.00,,,0.00,meteohub,2013-05-16 04:16:00,
2013-05-15 21:21:00,59.5,48.9,29.85,WNW,294,1.0,4.0,68,0.00,,,0.00,meteohub,2013-05-16 04:21:00,
2013-05-15 21:26:00,59.4,49.1,29.85,WNW,294,1.0,3.0,69,0.00,,,0.00,meteohub,2013-05-16 04:26:00,
2013-05-15 21:31:00,59.2,49.1,29.85,WNW,294,2.0,3.0,69,0.00,,,0.00,meteohub,2013-05-16 04:31:00,
2013-05-15 21:36:00,59.0,48.9,29.85,WNW,294,0.0,3.0,69,0.00,,,0.00,meteohub,2013-05-16 04:36:00,
2013-05-15 21:41:00,58.8,48.7,29.85,WNW,294,0.0,3.0,69,0.00,,,0.00,meteohub,2013-05-16 04:41:00,
2013-05-15 21:46:00,58.8,48.7,29.85,WNW,294,0.0,3.0,69,0.00,,,0.00,meteohub,2013-05-16 04:46:00,
2013-05-15 21:51:00,58.6,48.6,29.85,WNW,294,0.0,3.0,69,0.00,,,0.00,meteohub,2013-05-16 04:51:00,
2013-05-15 21:56:00,58.6,47.7,29.86,WNW,294,0.0,3.0,67,0.00,,,0.00,meteohub,2013-05-16 04:56:00,
2013-05-15 22:01:00,58.8,48.2,29.86,WNW,294,0.0,3.0,68,0.00,,,0.00,meteohub,2013-05-16 05:01:00,
2013-05-15 22:06:00,58.8,47.1,29.86,WNW,294,0.0,4.0,65,0.00,,,0.00,meteohub,2013-05-16 05:06:00,
2013-05-15 22:11:00,59.2,47.5,29.86,WNW,294,0.0,4.0,65,0.00,,,0.00,meteohub,2013-05-16 05:11:00,
2013-05-15 22:16:00,59.2,47.5,29.86,WNW,294,0.0,5.0,65,0.00,,,0.00,meteohub,2013-05-16 05:16:00,
2013-05-15 22:21:00,59.4,47.7,29.86,WNW,294,2.0,5.0,65,0.00,,,0.00,meteohub,2013-05-16 05:21:00,
2013-05-15 22:26:00,59.2,47.5,29.86,WNW,294,0.0,5.0,65,0.00,,,0.00,meteohub,2013-05-16 05:26:00,
2013-05-15 22:31:00,59.4,47.7,29.86,NW,307,0.0,5.0,65,0.00,,,0.00,meteohub,2013-05-16 05:31:00,
2013-05-15 22:36:00,59.4,47.7,29.86,NW,306,0.0,5.0,65,0.00,,,0.00,meteohub,2013-05-16 05:36:00,
2013-05-15 22:41:00,59.2,47.5,29.86,NW,306,0.0,5.0,65,0.00,,,0.00,meteohub,2013-05-16 05:41:00,
2013-05-15 22:46:00,59.2,47.8,29.86,NW,306,0.0,3.0,66,0.00,,,0.00,meteohub,2013-05-16 05:46:00,
2013-05-15 22:51:00,58.8,47.5,29.86,NW,306,0.0,3.0,66,0.00,,,0.00,meteohub,2013-05-16 05:51:00,
2013-05-15 22:56:00,58.8,47.8,29.86,NW,306,0.0,4.0,67,0.00,,,0.00,meteohub,2013-05-16 05:56:00,
2013-05-15 23:01:00,58.6,47.7,29.86,NW,306,0.0,4.0,67,0.00,,,0.00,meteohub,2013-05-16 06:01:00,
2013-05-15 23:06:00,58.5,47.5,29.86,NW,306,3.0,3.0,67,0.00,,,0.00,meteohub,2013-05-16 06:06:00,
2013-05-15 23:11:00,58.5,48.0,29.86,NW,311,0.0,5.0,68,0.00,,,0.00,meteohub,2013-05-16 06:11:00,
2013-05-15 23:16:00,58.5,48.0,29.86,NW,311,0.0,5.0,68,0.00,,,0.00,meteohub,2013-05-16 06:16:00,
2013-05-15 23:21:00,58.5,48.0,29.86,WSW,240,0.0,6.0,68,0.00,,,0.00,meteohub,2013-05-16 06:21:00,
2013-05-15 23:26:00,58.3,47.8,29.86,WSW,240,0.0,6.0,68,0.00,,,0.00,meteohub,2013-05-16 06:26:00,
2013-05-15 23:31:00,58.3,48.2,29.86,West,268,3.0,6.0,69,0.00,,,0.00,meteohub,2013-05-16 06:31:00,
2013-05-15 23:36:00,58.1,48.0,29.86,NW,306,3.0,6.0,69,0.00,,,0.00,meteohub,2013-05-16 06:36:00,
2013-05-15 23:41:00,58.1,48.4,29.85,WSW,255,0.0,6.0,70,0.00,,,0.00,meteohub,2013-05-16 06:41:00,
2013-05-15 23:46:00,57.9,48.2,29.85,WSW,240,1.0,6.0,70,0.00,,,0.00,meteohub,2013-05-16 06:46:00,
2013-05-15 23:51:00,57.9,48.2,29.85,NNW,336,1.0,7.0,70,0.00,,,0.00,meteohub,2013-05-16 06:51:00,
2013-05-15 23:56:00,57.9,48.2,29.85,West,275,0.0,7.0,70,0.00,,,0.00,meteohub,2013-05-16 06:56:00,